Time,TemperatureF,DewpointF,PressureIn,WindDirection,WindDirectionDegrees,WindSpeedMPH,WindSpeedGustMPH,Humidity,HourlyPrecipIn,Conditions,Clouds,dailyrainin,SoftwareType,DateUTC
2013-01-10 00:00:00,68.1,63.8,30.23,ESE,112,6.0,12.0,86,0.00,,SKC,0.00,VWS V14.01,2013-01-10 06:00:00,
2013-01-10 00:30:00,67.9,63.2,30.22,ESE,112,6.0,11.0,85,0.00,,SKC,0.00,VWS V14.01,2013-01-10 06:30:00,
2013-01-10 01:00:00,67.8,63.1,30.22,ESE,112,6.0,12.0,85,0.00,,SKC,0.00,VWS V14.01,2013-01-10 07:00:00,
2013-01-10 01:30:00,67.9,62.9,30.22,ESE,112,5.0,12.0,84,0.00,,SKC,0.00,VWS V14.01,2013-01-10 07:30:00,
2013-01-10 02:00:00,67.7,63.0,30.21,ESE,112,4.0,8.0,85,0.00,,SKC,0.00,VWS V14.01,2013-01-10 08:00:00,
2013-01-10 02:30:00,67.7,63.0,30.21,ESE,112,5.0,11.0,85,0.00,,SKC,0.00,VWS V14.01,2013-01-10 08:30:00,
2013-01-10 03:00:00,68.1,64.4,30.20,ESE,112,6.0,11.0,88,0.00,,SKC,0.00,VWS V14.01,2013-01-10 09:00:00,
2013-01-10 03:30:00,68.1,64.7,30.20,ESE,112,5.0,11.0,89,0.00,,SKC,0.00,VWS V14.01,2013-01-10 09:30:00,
2013-01-10 04:00:00,68.3,64.9,30.18,ESE,112,6.0,12.0,89,0.00,,SKC,0.00,VWS V14.01,2013-01-10 10:00:00,
2013-01-10 04:30:00,68.4,65.0,30.17,ESE,112,7.0,14.0,89,0.00,,SKC,0.00,VWS V14.01,2013-01-10 10:30:00,
2013-01-10 05:00:00,68.4,65.4,30.16,ESE,112,7.0,13.0,90,0.00,,SKC,0.00,VWS V14.01,2013-01-10 11:00:00,
2013-01-10 05:30:00,68.0,64.6,30.16,ESE,112,7.0,16.0,89,0.00,,SKC,0.00,VWS V14.01,2013-01-10 11:30:00,
2013-01-10 06:00:00,67.9,64.2,30.15,ESE,112,8.0,18.0,88,0.00,,SKC,0.00,VWS V14.01,2013-01-10 12:00:00,
2013-01-10 06:30:00,67.8,63.8,30.16,ESE,112,7.0,15.0,87,0.00,,SKC,0.00,VWS V14.01,2013-01-10 12:30:00,
2013-01-10 07:00:00,67.9,63.9,30.16,ESE,112,6.0,13.0,87,0.00,,SKC,0.00,VWS V14.01,2013-01-10 13:00:00,
2013-01-10 07:30:00,68.3,64.9,30.20,ESE,112,5.0,13.0,89,0.00,,SKC,0.00,VWS V14.01,2013-01-10 13:30:00,
2013-01-10 08:00:00,68.4,65.4,30.20,ESE,112,6.0,12.0,90,0.00,,SKC,0.00,VWS V14.01,2013-01-10 14:00:00,
2013-01-10 08:30:00,68.4,65.4,30.20,ESE,112,7.0,12.0,90,0.00,,SKC,0.00,VWS V14.01,2013-01-10 14:30:00,
2013-01-10 09:00:00,68.8,65.8,30.21,ESE,112,7.0,12.0,90,0.00,,SKC,0.00,VWS V14.01,2013-01-10 15:00:00,
2013-01-10 09:30:00,70.1,67.4,30.22,ESE,112,7.0,15.0,91,0.00,,SKC,0.00,VWS V14.01,2013-01-10 15:30:00,
2013-01-10 10:00:00,71.2,68.4,30.23,SE,135,8.0,16.0,91,0.00,,SKC,0.00,VWS V14.01,2013-01-10 16:00:00,
2013-01-10 10:30:00,71.4,68.6,30.20,SE,135,9.0,18.0,91,0.00,,SKC,0.00,VWS V14.01,2013-01-10 16:30:00,
2013-01-10 11:00:00,71.4,68.6,30.20,SE,135,9.0,21.0,91,0.00,,SKC,0.00,VWS V14.01,2013-01-10 17:00:00,
2013-01-10 11:30:00,72.1,69.3,30.18,SE,135,9.0,21.0,91,0.00,,SKC,0.00,VWS V14.01,2013-01-10 17:30:00,
2013-01-10 12:00:00,72.2,69.1,30.17,SE,135,9.0,18.0,90,0.00,,SKC,0.00,VWS V14.01,2013-01-10 18:00:00,
2013-01-10 12:30:00,72.4,69.3,30.15,SE,135,9.0,16.0,90,0.00,,SKC,0.00,VWS V14.01,2013-01-10 18:30:00,
2013-01-10 13:00:00,72.4,69.3,30.14,SE,135,9.0,19.0,90,0.00,,SKC,0.00,VWS V14.01,2013-01-10 19:00:00,
2013-01-10 13:30:00,72.0,68.9,30.16,SE,135,9.0,21.0,90,0.00,,SKC,0.00,VWS V14.01,2013-01-10 19:30:00,
2013-01-10 14:00:00,72.1,69.0,30.14,SE,135,9.0,18.0,90,0.00,,SKC,0.00,VWS V14.01,2013-01-10 20:00:00,
2013-01-10 14:30:00,72.1,69.0,30.13,SE,135,9.0,23.0,90,0.00,,SKC,0.00,VWS V14.01,2013-01-10 20:30:00,
2013-01-10 15:00:00,71.6,68.8,30.13,SE,135,9.0,18.0,91,0.00,,SKC,0.00,VWS V14.01,2013-01-10 21:00:00,
2013-01-10 15:30:00,71.2,68.4,30.11,SE,135,10.0,21.0,91,0.00,,SKC,0.00,VWS V14.01,2013-01-10 21:30:00,
2013-01-10 16:00:00,70.8,68.1,30.10,SE,135,10.0,21.0,91,0.00,,SKC,0.00,VWS V14.01,2013-01-10 22:00:00,
2013-01-10 16:30:00,64.7,61.7,30.14,SSW,202,8.0,22.0,90,0.28,,SKC,0.28,VWS V14.01,2013-01-10 22:30:00,
2013-01-10 17:00:00,64.0,60.4,30.16,SSW,202,4.0,12.0,88,0.29,,SKC,0.29,VWS V14.01,2013-01-10 23:00:00,
2013-01-10 17:30:00,63.7,59.4,30.13,South,180,2.0,7.0,86,0.31,,SKC,0.31,VWS V14.01,2013-01-10 23:30:00,
2013-01-10 18:00:00,63.6,59.3,30.13,SSE,158,1.0,6.0,86,0.03,,SKC,0.31,VWS V14.01,2013-01-11 00:00:00,
2013-01-10 18:30:00,63.6,59.0,30.14,SSE,158,3.0,7.0,85,0.02,,SKC,0.31,VWS V14.01,2013-01-11 00:30:00,
2013-01-10 19:00:00,63.4,59.2,30.14,SSE,158,3.0,8.0,86,0.00,,SKC,0.31,VWS V14.01,2013-01-11 01:00:00,
2013-01-10 19:30:00,63.5,58.9,30.12,SE,135,5.0,10.0,85,0.00,,SKC,0.31,VWS V14.01,2013-01-11 01:30:00,
2013-01-10 20:00:00,63.6,59.0,30.12,SE,135,5.0,12.0,85,0.00,,SKC,0.31,VWS V14.01,2013-01-11 02:00:00,
2013-01-10 20:30:00,63.8,59.5,30.10,SE,135,5.0,11.0,86,0.00,,SKC,0.31,VWS V14.01,2013-01-11 02:30:00,
2013-01-10 21:00:00,64.0,60.1,30.10,SE,135,5.0,13.0,87,0.00,,SKC,0.31,VWS V14.01,2013-01-11 03:00:00,
2013-01-10 21:30:00,64.7,61.7,30.08,SE,135,9.0,18.0,90,0.00,,SKC,0.31,VWS V14.01,2013-01-11 03:30:00,
2013-01-10 22:00:00,65.3,62.9,30.04,SE,135,10.0,18.0,92,0.00,,SKC,0.31,VWS V14.01,2013-01-11 04:00:00,
2013-01-10 22:30:00,65.9,63.2,30.09,SE,135,9.0,21.0,91,0.01,,SKC,0.32,VWS V14.01,2013-01-11 04:30:00,
2013-01-10 23:07:00,65.9,63.2,30.09,SE,135,9.0,21.0,91,0.01,,SKC,0.32,VWS V14.01,2013-01-11 05:07:00,
2013-01-10 23:12:00,66.6,63.9,30.04,SE,134,9.0,16.0,91,0.01,,SKC,0.32,VWS V14.01,2013-01-11 05:12:00,
2013-01-10 23:17:00,66.6,63.9,30.04,SE,143,8.0,16.0,91,0.01,,SKC,0.32,VWS V14.01,2013-01-11 05:17:00,
2013-01-10 23:22:00,66.5,63.8,30.05,SSE,148,6.0,16.0,91,0.01,,SKC,0.32,VWS V14.01,2013-01-11 05:22:00,
2013-01-10 23:27:00,66.4,63.7,30.05,SSE,147,7.0,16.0,91,0.01,,SKC,0.32,VWS V14.01,2013-01-11 05:27:00,
2013-01-10 23:32:00,66.4,63.7,30.06,SSE,157,7.0,8.0,91,0.00,,SKC,0.32,VWS V14.01,2013-01-11 05:32:00,
2013-01-10 23:37:00,66.4,63.7,30.07,SSE,162,5.0,11.0,91,0.00,,SKC,0.32,VWS V14.01,2013-01-11 05:37:00,
2013-01-10 23:42:00,66.3,63.6,30.08,SSE,156,8.0,11.0,91,0.00,,SKC,0.32,VWS V14.01,2013-01-11 05:42:00,
2013-01-10 23:47:00,66.3,63.6,30.08,South,178,4.0,11.0,91,0.00,,SKC,0.32,VWS V14.01,2013-01-11 05:47:00,
2013-01-10 23:52:00,66.3,63.6,30.09,SSE,157,6.0,11.0,91,0.00,,SKC,0.32,VWS V14.01,2013-01-11 05:52:00,
2013-01-10 23:57:00,66.3,63.6,30.09,SSE,147,2.0,11.0,91,0.00,,SKC,0.32,VWS V14.01,2013-01-11 05:57:00,